User: anonymous   Login
Location: Unspecified
(0.0000°N, 0.0000°E)
Time: 00:38:19
(UTC+00:00)
Language:

S80/T - Orbit

View from above orbital plane
View from above orbital plane
View from above satellite
View from above satellite

Ground track
Ground track

The orbit data is extracted from the following two-line orbital elements,

1 22078U 92052C   21023.53767595 -.00000057  00000-0  21004-4 0  9996
2 22078  66.0858  78.4584 0004907 179.4416 180.6609 12.86794515336855
Epoch (UTC): 23 January 2021 12:54:15
Eccentricity: 0.0004907
inclination: 66.0858°
perigee height: 1310 km
apogee height: 1318 km
right ascension of ascending node: 78.4584°
argument of perigee: 179.4416°
revolutions per day: 12.86794515
mean anomaly at epoch: 180.6609°
orbit number at epoch: 33685

The dashed part of the orbit path shows where the satellite is in the earth's shadow,  

DLR